Weather History for Merrill, WI

Change the Weather History Date:

Sunday, February 23, 2014

  Actual Average Record
Temperature  
Mean Temperature 8 °F -  
Max Temperature 17 °F 33 °F 55 °F (1930)
Min Temperature 0 °F 11 °F -29 °F (1936)
Degree Days  
Heating Degree Days 56    
Moisture  
Dew Point 0 °F    
Average Humidity 68    
Maximum Humidity 81    
Minimum Humidity 56    
Precipitation  
Precipitation 0.00 in - - ()
Sea Level Pressure  
Sea Level Pressure 30.00 in    
Wind  
Wind Speed 11 mph (West)    
Max Wind Speed 22 mph    
Max Gust Speed 29 mph    
Visibility 10 miles    
Events      
Averages and records for this station are not official NWS values.
T = Trace of Precipitation, MM = Missing Value Source: NWS Daily Summary

Daily Weather History Graph

Daily Weather History Graph

Search for Another Location

Airport:

Trip Planner

Search our weather history database for the weather conditions in past years. The results will help you decide how hot, cold, wet, or windy it might be!

Date:

Astronomy

Feb. 23, 2014 Rise Set
Actual Time 6:47 AM CST 5:37 PM CST
Civil Twilight 6:17 AM CST 6:07 PM CST
Nautical Twilight 5:43 AM CST 6:41 PM CST
Astronomical Twilight 5:09 AM CST 7:16 PM CST
Moon 1:53 AM CST (2/23) 11:31 AM CST (2/23)
Length of Visible Light 11h 50m
Length of Day
10h 50m
Last Quarter, 38% of the Moon is Illuminated
Feb 23
Last Quarter
Mar 1
New
Mar 8
First Quarter
Mar 16
Full
Mar 23
Last Quarter

Hourly Weather History & Observations

Time (CST) Temp. Windchill Dew Point Humidity Pressure Visibility Wind Dir Wind Speed Gust Speed Precip Events Conditions
12:15 AM 4.6 °F -8.5 °F -1.5 °F 76% 29.93 in 10.0 mi West 8.1 mph - N/A   Clear
12:35 AM 4.1 °F -10.2 °F -1.7 °F 77% 29.94 in 10.0 mi West 9.2 mph - N/A   Clear
12:55 AM 4.3 °F -10.0 °F -2.0 °F 75% 29.94 in 10.0 mi West 9.2 mph - N/A   Clear
1:15 AM 3.2 °F -13.1 °F -2.6 °F 77% 29.95 in 10.0 mi West 11.5 mph - N/A   Clear
1:35 AM 3.4 °F -11.1 °F -2.6 °F 76% 29.95 in 10.0 mi West 9.2 mph - N/A   Clear
1:55 AM 3.2 °F -12.2 °F -2.6 °F 77% 29.96 in 10.0 mi West 10.4 mph - N/A   Clear
2:15 AM 2.5 °F -12.2 °F -3.1 °F 78% 29.96 in 10.0 mi West 9.2 mph - N/A   Clear
2:30 AM 2.8 °F -11.7 °F -2.9 °F 77% 29.95 in 10.0 mi West 9.2 mph - N/A   Clear
2:55 AM 2.5 °F -11.1 °F -3.1 °F 78% 29.96 in 10.0 mi West 8.1 mph - N/A   Scattered Clouds
3:15 AM 2.3 °F -11.4 °F -3.3 °F 77% 29.96 in 10.0 mi West 8.1 mph - N/A   Mostly Cloudy
3:35 AM 2.3 °F -11.4 °F -3.5 °F 77% 29.97 in 10.0 mi WNW 8.1 mph - N/A   Mostly Cloudy
3:55 AM 1.9 °F -10.6 °F -4.0 °F 76% 29.98 in 10.0 mi WNW 6.9 mph 16.1 mph N/A   Scattered Clouds
4:15 AM 1.6 °F -12.2 °F -4.0 °F 77% 29.98 in 10.0 mi West 8.1 mph - N/A   Clear
4:35 AM 1.8 °F -13.1 °F -4.0 °F 77% 29.98 in 10.0 mi West 9.2 mph 16.1 mph N/A   Clear
4:55 AM 1.2 °F -12.7 °F -4.2 °F 78% 29.98 in 10.0 mi West 8.1 mph - N/A   Clear
5:15 AM -0.0 °F -14.2 °F -5.1 °F 79% 29.99 in 10.0 mi West 8.1 mph - N/A   Clear
5:35 AM 0.3 °F -12.6 °F -4.4 °F 81% 30.00 in 10.0 mi West 6.9 mph - N/A   Clear
5:55 AM 0.3 °F -13.8 °F -4.7 °F 79% 29.99 in 10.0 mi West 8.1 mph - N/A   Clear
6:15 AM -0.0 °F -13.0 °F -4.9 °F 80% 29.99 in 10.0 mi West 6.9 mph - N/A   Clear
6:35 AM -0.4 °F -12.0 °F -5.3 °F 80% 29.99 in 10.0 mi West 5.8 mph - N/A   Clear
6:55 AM -0.6 °F -13.6 °F -5.1 °F 81% 29.99 in 10.0 mi West 6.9 mph - N/A   Clear
7:10 AM -0.4 °F -14.7 °F -5.3 °F 80% 30.00 in 10.0 mi West 8.1 mph - N/A   Clear
7:35 AM 0.5 °F -12.3 °F -5.3 °F 77% 30.00 in 10.0 mi West 6.9 mph - N/A   Clear
7:55 AM 1.6 °F -14.2 °F -4.9 °F 74% 30.01 in 10.0 mi West 10.4 mph - N/A   Clear
8:15 AM 3.0 °F -13.3 °F -4.4 °F 71% 30.01 in 10.0 mi WNW 11.5 mph - N/A   Clear
8:35 AM 4.1 °F -13.4 °F -4.0 °F 69% 30.00 in 1.2 mi WNW 13.8 mph 20.7 mph N/A   Haze
8:55 AM 5.0 °F -10.8 °F -3.5 °F 68% 30.01 in 10.0 mi WNW 11.5 mph 18.4 mph N/A   Clear
9:15 AM 6.1 °F -8.7 °F -3.1 °F 66% 30.01 in 10.0 mi WNW 10.4 mph 19.6 mph N/A   Clear
9:35 AM 7.3 °F -10.6 °F -2.2 °F 65% 30.01 in 10.0 mi West 16.1 mph 19.6 mph N/A   Clear
9:55 AM 8.4 °F -4.9 °F -2.2 °F 62% 30.01 in 10.0 mi WNW 9.2 mph - N/A   Clear
10:15 AM 9.9 °F -4.7 °F -1.3 °F 61% 30.00 in 10.0 mi WNW 11.5 mph 20.7 mph N/A   Clear
10:35 AM 11.1 °F -5.7 °F -0.8 °F 59% 30.00 in 10.0 mi West 16.1 mph 19.6 mph N/A   Clear
10:55 AM 12.0 °F -3.4 °F -0.6 °F 57% 30.00 in 10.0 mi West 13.8 mph 18.4 mph N/A   Clear
11:15 AM 12.6 °F -3.3 °F 0.5 °F 59% 30.01 in 10.0 mi West 15.0 mph 24.2 mph N/A   Clear
11:35 AM 13.1 °F -2.0 °F 0.5 °F 57% 30.01 in 10.0 mi West 13.8 mph 21.9 mph N/A   Clear
11:55 AM 13.8 °F -2.2 °F 1.9 °F 59% 30.00 in 10.0 mi West 16.1 mph 23.0 mph N/A   Clear
12:15 PM 14.5 °F -2.7 °F 1.4 °F 56% 29.99 in 10.0 mi West 19.6 mph 26.5 mph N/A   Clear
12:35 PM 14.9 °F -2.7 °F 2.8 °F 59% 29.98 in 10.0 mi West 20.7 mph 27.6 mph N/A   Clear
12:55 PM 15.3 °F -1.3 °F 3.0 °F 58% 29.98 in 10.0 mi West 18.4 mph 28.8 mph N/A   Clear
1:15 PM 15.8 °F -0.6 °F 3.2 °F 58% 29.98 in 10.0 mi West 18.4 mph 26.5 mph N/A   Clear
1:35 PM 16.7 °F -0.3 °F 3.6 °F 56% 29.97 in 10.0 mi West 20.7 mph 25.3 mph N/A   Scattered Clouds
1:55 PM 16.7 °F -0.7 °F 3.9 °F 57% 29.97 in 10.0 mi West 21.9 mph 25.3 mph N/A   Scattered Clouds
2:15 PM 17.1 °F 1.5 °F 4.3 °F 57% 29.98 in 10.0 mi West 17.3 mph 25.3 mph N/A   Scattered Clouds
2:35 PM 17.4 °F 1.9 °F 4.3 °F 56% 29.98 in 10.0 mi WNW 17.3 mph 24.2 mph N/A   Mostly Cloudy
2:55 PM 15.8 °F -1.1 °F 3.0 °F 57% 29.98 in 10.0 mi West 19.6 mph 25.3 mph N/A   Mostly Cloudy
3:15 PM 15.8 °F -1.1 °F 3.0 °F 57% 29.98 in 10.0 mi West 19.6 mph 25.3 mph N/A   Scattered Clouds
3:35 PM 16.3 °F -0.4 °F 4.1 °F 59% 29.99 in 10.0 mi West 19.6 mph 24.2 mph N/A   Scattered Clouds
3:55 PM 15.6 °F 0.1 °F 2.7 °F 57% 29.99 in 10.0 mi West 16.1 mph 26.5 mph N/A   Clear
4:15 PM 14.4 °F -0.4 °F 2.3 °F 59% 30.00 in 10.0 mi West 13.8 mph 24.2 mph N/A   Scattered Clouds
4:35 PM 14.0 °F -2.5 °F 1.4 °F 57% 30.00 in 10.0 mi West 17.3 mph 21.9 mph N/A   Mostly Cloudy
4:55 PM 14.5 °F -0.7 °F 2.3 °F 58% 30.00 in 10.0 mi West 15.0 mph 19.6 mph N/A   Mostly Cloudy
5:15 PM 14.0 °F -1.4 °F 2.3 °F 60% 30.01 in 10.0 mi West 15.0 mph 20.7 mph N/A   Mostly Cloudy
5:35 PM 12.9 °F -0.9 °F 1.9 °F 62% 30.01 in 10.0 mi West 11.5 mph 18.4 mph N/A   Scattered Clouds
5:55 PM 12.4 °F -2.3 °F 1.8 °F 63% 30.02 in 10.0 mi WNW 12.7 mph 18.4 mph N/A   Scattered Clouds
5:58 PM 12.2 °F -1.8 °F 1.4 °F 62% 30.02 in 10.0 mi West 11.5 mph - N/A   Clear
6:15 PM 12.2 °F -2.5 °F 1.9 °F 64% 30.02 in 10.0 mi West 12.7 mph 19.6 mph N/A   Clear
6:35 PM 12.0 °F -2.7 °F 1.8 °F 64% 30.02 in 10.0 mi West 12.7 mph 17.3 mph N/A   Clear
6:55 PM 10.9 °F -4.1 °F 1.6 °F 66% 30.02 in 10.0 mi West 12.7 mph 16.1 mph N/A   Clear
7:15 PM 9.9 °F -5.5 °F 1.2 °F 68% 30.02 in 10.0 mi West 12.7 mph 17.3 mph N/A   Clear
7:35 PM 10.4 °F -4.8 °F 1.4 °F 67% 30.02 in 10.0 mi West 12.7 mph - N/A   Clear
7:55 PM 10.8 °F -3.6 °F 1.8 °F 67% 30.02 in 10.0 mi West 11.5 mph 17.3 mph N/A   Clear
8:15 PM 10.4 °F -4.8 °F 1.8 °F 68% 30.02 in 10.0 mi West 12.7 mph - N/A   Clear
8:35 PM 10.0 °F -4.5 °F 1.8 °F 69% 30.02 in 10.0 mi West 11.5 mph 19.6 mph N/A   Clear
8:55 PM 10.0 °F -3.7 °F 1.6 °F 69% 30.02 in 10.0 mi West 10.4 mph 17.3 mph N/A   Clear
9:15 PM 10.0 °F -5.2 °F 1.6 °F 69% 30.03 in 10.0 mi West 12.7 mph - N/A   Clear
9:35 PM 9.9 °F -4.0 °F 1.4 °F 69% 30.03 in 10.0 mi West 10.4 mph 18.4 mph N/A   Clear
9:55 PM 9.5 °F -5.2 °F 1.2 °F 69% 30.03 in 10.0 mi WNW 11.5 mph 19.6 mph N/A   Clear
10:15 PM 9.5 °F -4.4 °F 1.2 °F 69% 30.03 in 10.0 mi WNW 10.4 mph 19.6 mph N/A   Clear
10:35 PM 9.3 °F -5.4 °F 1.0 °F 69% 30.03 in 10.0 mi West 11.5 mph - N/A   Clear
10:55 PM 9.0 °F -5.9 °F 0.7 °F 69% 30.03 in 10.0 mi West 11.5 mph 19.6 mph N/A   Clear
11:15 PM 8.6 °F -6.3 °F 0.5 °F 70% 30.03 in 10.0 mi West 11.5 mph 17.3 mph N/A   Clear
11:35 PM 8.4 °F -5.7 °F 0.5 °F 70% 30.03 in 10.0 mi West 10.4 mph - N/A   Clear
11:55 PM 7.7 °F -6.6 °F 0.1 °F 71% 30.04 in 10.0 mi West 10.4 mph - N/A   Clear